Date String (YYYY-MM-DD hh:mm:ss) UTC,Instrument flags,absolute air pressure of the measurement (hPa),sample flow rate (lpm),inlet stack bypass flow (lpm),air temperature of the measurement (°C),ambient temperature measured by the external sensor (°C),aerosol sample conditioner tube jacket temperature (°C),OPC LED temperature (°C),internal box temperature (°C),relative humidity of the measurement (%),span deviation,mass concentration of particles derived from Lorenz-Mie calculation of OPC scattering (μg/m³),mass concentration of particles derived from Lorenz-Mie calculation of OPC scattering (μg/m³),mass concentration of particles derived from Lorenz-Mie calculation of OPC scattering (μg/m³)
DateTimeUTC,F1_M11,P_M11,Q1_M11,Q2_M11,T1_M11,T2_M11,T3_M11,T4_M11,T5_M11,U1_M11,ZSPAN_M11,X2_M11,X0_M11,X1_M11
2024-05-12 20:00:00,SystemResetWarning,0825.2,4.99,000.00,025.4,025.0,000.0,033.6,027.4,026.7,0000.0,0003.74,0009.12,0003.09
2024-05-12 20:01:00,SystemResetWarning,0825.2,5.00,000.00,025.5,025.0,000.0,033.6,027.3,025.9,0000.0,0003.75,0009.68,0003.11
2024-05-12 20:02:00,SystemResetWarning,0825.2,5.00,000.00,025.5,025.1,000.0,033.7,027.4,027.0,0000.0,0003.77,0010.46,0003.15
2024-05-12 20:03:00,SystemResetWarning,0825.2,5.01,000.00,025.6,025.1,000.0,033.7,027.4,025.9,0000.0,0003.78,0010.52,0003.16
2024-05-12 20:04:00,SystemResetWarning,0825.2,5.00,000.00,025.6,025.1,000.0,033.7,027.5,026.3,0000.0,0003.82,0010.64,0003.16
2024-05-12 20:05:00,SystemResetWarning,0825.2,4.99,000.00,025.6,025.1,000.0,033.8,027.5,026.0,0000.0,0003.77,0010.84,0003.14
2024-05-12 20:06:00,SystemResetWarning,0825.2,4.99,000.00,025.6,025.1,000.0,033.8,027.5,026.0,0000.0,0003.77,0010.27,0003.12
2024-05-12 20:07:00,SystemResetWarning,0825.3,4.99,000.00,025.7,025.1,000.0,033.8,027.5,026.1,0000.0,0003.77,0010.75,0003.12
2024-05-12 20:08:00,SystemResetWarning,0825.2,5.00,000.00,025.7,025.2,000.0,033.8,027.5,025.4,0000.0,0003.72,0010.22,0003.12
2024-05-12 20:09:00,SystemResetWarning,0825.2,5.00,000.00,025.7,025.1,000.0,033.9,027.5,024.9,0000.0,0003.76,0010.07,0003.11
2024-05-12 20:10:00,SystemResetWarning,0825.2,4.99,000.00,025.6,023.7,000.0,033.9,026.7,025.0,0000.0,0003.80,0010.08,0003.12
2024-05-12 20:11:00,SystemResetWarning,0825.1,5.01,000.00,025.2,022.2,000.0,033.9,025.9,026.1,0000.0,0003.80,0010.03,0003.14
2024-05-12 20:12:00,SystemResetWarning,0825.1,5.01,000.00,024.9,022.3,000.0,033.8,025.9,026.1,0000.0,0003.85,0009.50,0003.16
2024-05-12 20:13:00,SystemResetWarning,0825.1,4.99,000.00,024.9,022.6,000.0,033.7,026.0,026.6,0000.0,0003.90,0008.91,0003.17
2024-05-12 20:14:00,SystemResetWarning,0825.1,4.99,000.00,024.9,023.0,000.0,033.6,026.3,026.9,0000.0,0003.91,0008.82,0003.18
2024-05-12 20:15:00,SystemResetWarning,0825.1,5.00,000.00,024.9,023.3,000.0,033.5,026.4,026.5,0000.0,0003.88,0008.69,0003.17
2024-05-12 20:16:00,SystemResetWarning,0825.1,5.00,000.00,025.0,023.6,000.0,033.5,026.6,026.1,0000.0,0003.90,0008.41,0003.17
2024-05-12 20:17:00,SystemResetWarning,0825.1,5.00,000.00,025.0,023.8,000.0,033.5,026.7,026.1,0000.0,0003.88,0008.90,0003.16
2024-05-12 20:18:00,SystemResetWarning,0825.2,5.00,000.00,025.0,024.1,000.0,033.5,026.8,025.9,0000.0,0003.84,0008.13,0003.16
2024-05-12 20:19:00,SystemResetWarning,0825.2,5.00,000.00,025.1,024.2,000.0,033.4,026.8,025.6,0000.0,0003.79,0008.02,0003.12
2024-05-12 20:20:00,SystemResetWarning,0825.2,5.00,000.00,025.1,024.4,000.0,033.4,026.9,025.4,0000.0,0003.75,0007.59,0003.09
2024-05-12 20:21:00,SystemResetWarning,0825.2,5.00,000.00,025.2,024.5,000.0,033.5,026.9,026.3,0000.0,0003.68,0007.44,0003.01
2024-05-12 20:22:00,SystemResetWarning,0825.2,5.00,000.00,025.2,024.6,000.0,033.5,027.0,026.7,0000.0,0003.62,0007.49,0002.91
2024-05-12 20:23:00,SystemResetWarning,0825.3,5.00,000.00,025.2,024.7,000.0,033.5,027.1,025.6,0000.0,0003.58,0007.53,0002.84
2024-05-12 20:24:00,SystemResetWarning,0825.2,5.00,000.00,025.3,024.8,000.0,033.5,027.1,025.3,0000.0,0003.50,0007.34,0002.78
2024-05-12 20:25:00,SystemResetWarning,0825.2,5.00,000.00,025.3,024.9,000.0,033.5,027.2,025.2,0000.0,0003.49,0007.35,0002.78
2024-05-12 20:26:00,SystemResetWarning,0825.2,5.00,000.00,025.4,024.9,000.0,033.6,027.2,025.5,0000.0,0003.52,0007.41,0002.81
2024-05-12 20:27:00,SystemResetWarning,0825.2,5.00,000.00,025.4,025.0,000.0,033.6,027.2,025.5,0000.0,0003.52,0007.40,0002.83
2024-05-12 20:28:00,SystemResetWarning,0825.2,4.99,000.00,025.3,023.9,000.0,033.6,026.6,025.6,0000.0,0003.51,0006.59,0002.83
2024-05-12 20:29:00,SystemResetWarning,0825.2,5.01,000.00,025.0,022.2,000.0,033.7,025.9,025.8,0000.0,0003.51,0006.57,0002.83
2024-05-12 20:30:00,SystemResetWarning,0825.1,5.01,000.00,024.8,022.2,000.0,033.6,025.7,026.0,0000.0,0003.50,0007.37,0002.85
2024-05-12 20:31:00,SystemResetWarning,0825.2,5.00,000.00,024.7,022.6,000.0,033.5,025.9,026.4,0000.0,0003.51,0007.69,0002.90
2024-05-12 20:32:00,SystemResetWarning,0825.1,5.00,000.00,024.7,022.9,000.0,033.3,026.1,026.2,0000.0,0003.55,0007.75,0002.94
2024-05-12 20:33:00,SystemResetWarning,0825.2,5.00,000.00,024.8,023.2,000.0,033.3,026.3,026.2,0000.0,0003.57,0007.69,0002.99
2024-05-12 20:34:00,SystemResetWarning,0825.2,5.00,000.00,024.8,023.5,000.0,033.2,026.4,026.5,0000.0,0003.58,0007.71,0002.99
2024-05-12 20:35:00,SystemResetWarning,0825.2,5.00,000.00,024.9,023.8,000.0,033.2,026.6,027.7,0000.0,0003.56,0007.77,0002.96
2024-05-12 20:36:00,SystemResetWarning,0825.2,4.99,000.00,024.9,024.0,000.0,033.2,026.6,027.1,0000.0,0003.48,0007.64,0002.90
2024-05-12 20:37:00,SystemResetWarning,0825.2,5.00,000.00,025.0,024.2,000.0,033.2,026.7,027.0,0000.0,0003.42,0007.56,0002.83
2024-05-12 20:38:00,SystemResetWarning,0825.1,5.00,000.00,025.0,024.3,000.0,033.2,026.8,026.7,0000.0,0003.36,0007.49,0002.75
2024-05-12 20:39:00,SystemResetWarning,0825.2,5.00,000.00,025.1,024.5,000.0,033.3,026.8,027.0,0000.0,0003.32,0007.43,0002.70
2024-05-12 20:40:00,SystemResetWarning,0825.2,5.00,000.00,025.1,024.6,000.0,033.3,026.9,025.9,0000.0,0003.29,0007.25,0002.65
2024-05-12 20:41:00,SystemResetWarning,0825.1,5.00,000.00,025.2,024.7,000.0,033.3,027.0,025.9,0000.0,0003.30,0006.61,0002.62
2024-05-12 20:42:00,SystemResetWarning,0825.1,5.00,000.00,025.2,024.8,000.0,033.3,027.1,026.3,0000.0,0003.27,0006.01,0002.57
2024-05-12 20:43:00,SystemResetWarning,0825.1,5.01,000.00,025.3,024.9,000.0,033.4,027.1,025.5,0000.0,0003.23,0006.61,0002.52
2024-05-12 20:44:00,SystemResetWarning,0825.1,5.00,000.00,025.3,024.9,000.0,033.4,027.2,026.7,0000.0,0003.21,0006.89,0002.49
2024-05-12 20:45:00,SystemResetWarning,0825.0,4.98,000.00,025.3,024.0,000.0,033.5,026.7,025.9,0000.0,0003.19,0006.76,0002.48
2024-05-12 20:46:00,SystemResetWarning,0825.0,5.01,000.00,024.9,022.3,000.0,033.5,025.8,026.3,0000.0,0003.23,0006.89,0002.48
2024-05-12 20:47:00,SystemResetWarning,0825.0,5.01,000.00,024.7,022.3,000.0,033.5,025.7,027.3,0000.0,0003.29,0007.07,0002.52
2024-05-12 20:48:00,SystemResetWarning,0825.0,4.98,000.00,024.7,022.6,000.0,033.3,025.9,027.3,0000.0,0003.33,0007.74,0002.55
2024-05-12 20:49:00,SystemResetWarning,0825.0,5.00,000.00,024.7,022.9,000.0,033.2,026.1,026.6,0000.0,0003.34,0007.88,0002.55
2024-05-12 20:50:00,SystemResetWarning,0825.0,5.01,000.00,024.7,023.3,000.0,033.2,026.3,026.6,0000.0,0003.35,0007.88,0002.57
2024-05-12 20:51:00,SystemResetWarning,0825.1,5.01,000.00,024.8,023.5,000.0,033.2,026.4,026.2,0000.0,0003.39,0007.96,0002.58
2024-05-12 20:52:00,SystemResetWarning,0825.1,4.99,000.00,024.8,023.8,000.0,033.2,026.5,025.8,0000.0,0003.35,0007.77,0002.57
2024-05-12 20:53:00,SystemResetWarning,0825.1,5.00,000.00,024.9,024.0,000.0,033.2,026.7,025.9,0000.0,0003.36,0007.81,0002.57
2024-05-12 20:54:00,SystemResetWarning,0825.1,5.00,000.00,024.9,024.2,000.0,033.2,026.7,025.8,0000.0,0003.34,0007.38,0002.55
2024-05-12 20:55:00,SystemResetWarning,0825.1,4.99,000.00,025.0,024.3,000.0,033.2,026.8,025.7,0000.0,0003.35,0007.24,0002.54
2024-05-12 20:56:00,SystemResetWarning,0825.1,5.00,000.00,025.0,024.5,000.0,033.2,026.9,026.5,0000.0,0003.34,0007.05,0002.53
2024-05-12 20:57:00,SystemResetWarning,0825.0,5.00,000.00,025.1,024.6,000.0,033.2,026.9,026.9,0000.0,0003.29,0006.76,0002.53
2024-05-12 20:58:00,SystemResetWarning,0825.1,5.00,000.00,025.1,024.7,000.0,033.3,027.0,026.8,0000.0,0003.29,0006.69,0002.50
2024-05-12 20:59:00,SystemResetWarning,0825.1,5.00,000.00,025.2,024.8,000.0,033.3,027.1,026.9,0000.0,0003.28,0005.96,0002.49
